Syracuse, NY

3:14 AM EST on November 15, 2019 (GMT -0500)
Syracuse Hancock International

Weather History for KSYR - September, 2019

Change the Weather History Date:

Friday, September 6, 2019

  Actual Average Record
Temperature  
Mean Temperature 62 °F 66 °F  
Max Temperature 75 °F 76 °F 93 °F (1978)
Min Temperature 49 °F 55 °F 38 °F (1938)
Degree Days  
Heating Degree Days 3 2  
Month to date heating degree days 8 11  
Since 1 July heating degree days 13 37  
Cooling Degree Days 0 3  
Month to date cooling degree days 5 19  
Year to date cooling degree days 573 532  
Growing Degree Days 12 (Base 50)    
Moisture  
Dew Point 51 °F    
Average Humidity 70    
Maximum Humidity 89    
Minimum Humidity 41    
Precipitation  
Precipitation T in 0.12 in 2.33 in (1979)
Month to date precipitation 1.63 0.71  
Year to date precipitation 32.27 25.30  
Snow  
Snow 0.00 in 0.00 in 0.00 in (2002)
Month to date snowfall 0.0 0.0  
Since 1 July snowfall T 0.0  
Since 1 September snowfall 0.0 0.0  
Snow Depth 0.00 in    
Sea Level Pressure  
Sea Level Pressure 29.93 in    
Wind  
Wind Speed 4 mph ()    
Max Wind Speed 15 mph    
Max Gust Speed 20 mph    
Visibility 10.0 miles    
Events Rain    
T = Trace of Precipitation, MM = Missing Value Source: Averaged Metar Reports

Daily Weather History Graph

Daily Weather History Graph

Search for Another Location

Airport or City:

Astronomy

Sep. 06, 2019 Rise Set
Actual Time 6:33 AM EDT 7:30 PM EDT
Civil Twilight 6:04 AM EDT 7:59 PM EDT
Nautical Twilight 5:30 AM EDT 8:34 PM EDT
Astronomical Twilight 4:54 AM EDT 9:10 PM EDT
Moon 2:52 PM EDT (9/6) No Moon Set
Length of Visible Light 13h 54m
Length of Day
12h 57m
First Quarter, 55% of the Moon is Illuminated
Sep 6
First Quarter
Sep 14
Full
Sep 21
Last Quarter
Sep 28
New
Oct 5
First Quarter

Hourly Weather History & Observations

Time (EDT) Temp. Dew Point Humidity Pressure Visibility Wind Dir Wind Speed Gust Speed Precip Events Conditions
12:54 AM 53.1 °F 48.9 °F 86% 30.05 in 10.0 mi ESE 3.5 mph - N/A   Partly Cloudy
1:54 AM 52.0 °F 48.0 °F 86% 30.04 in 10.0 mi SE 4.6 mph - N/A   Partly Cloudy
2:54 AM 51.1 °F 46.9 °F 86% 30.03 in 10.0 mi ESE 4.6 mph - N/A   Partly Cloudy
3:54 AM 52.0 °F 48.0 °F 86% 30.02 in 10.0 mi Calm Calm - N/A   Partly Cloudy
4:54 AM 53.1 °F 46.9 °F 80% 30.01 in 10.0 mi Calm Calm - N/A   Mostly Cloudy
5:54 AM 51.1 °F 48.0 °F 89% 30.02 in 10.0 mi Calm Calm - N/A   Mostly Cloudy
6:54 AM 50.0 °F 46.9 °F 89% 30.02 in 10.0 mi Calm Calm - N/A   Scattered Clouds
7:54 AM 53.1 °F 48.9 °F 86% 30.01 in 10.0 mi ESE 5.8 mph - N/A   Scattered Clouds
8:54 AM 57.0 °F 51.1 °F 81% 30.00 in 10.0 mi East 4.6 mph - N/A   Scattered Clouds
9:54 AM 63.0 °F 53.1 °F 70% 29.98 in 10.0 mi ENE 5.8 mph - N/A   Partly Cloudy
10:54 AM 68.0 °F 55.0 °F 63% 29.96 in 10.0 mi East 9.2 mph - N/A   Partly Cloudy
11:54 AM 71.1 °F 55.9 °F 59% 29.92 in 10.0 mi Variable 6.9 mph - N/A   Partly Cloudy
12:54 PM 73.0 °F 51.1 °F 46% 29.91 in 10.0 mi Variable 4.6 mph - N/A   Partly Cloudy
1:54 PM 73.0 °F 48.9 °F 42% 29.89 in 10.0 mi East 10.4 mph - N/A   Scattered Clouds
2:54 PM 75.0 °F 53.1 °F 46% 29.86 in 10.0 mi ENE 11.5 mph - N/A   Scattered Clouds
3:54 PM 73.9 °F 52.0 °F 46% 29.84 in 10.0 mi NNE 11.5 mph - N/A   Scattered Clouds
4:54 PM 73.9 °F 52.0 °F 46% 29.83 in 10.0 mi NE 13.8 mph 18.4 mph N/A   Mostly Cloudy
5:54 PM 71.1 °F 52.0 °F 51% 29.84 in 10.0 mi NE 6.9 mph - N/A   Mostly Cloudy
6:54 PM 68.0 °F 51.1 °F 55% 29.85 in 10.0 mi ENE 6.9 mph - N/A   Overcast
7:54 PM 66.9 °F 51.1 °F 57% 29.83 in 10.0 mi ENE 8.1 mph - N/A   Overcast
8:54 PM 64.0 °F 55.0 °F 73% 29.86 in 10.0 mi East 3.5 mph - 0.00 in Rain Light Rain
9:54 PM 62.1 °F 57.0 °F 84% 29.85 in 10.0 mi NW 4.6 mph - 0.00 in   Overcast
10:54 PM 62.1 °F 57.0 °F 84% 29.83 in 10.0 mi NE 3.5 mph - N/A   Overcast
11:54 PM 61.0 °F 55.9 °F 83% 29.84 in 10.0 mi North 5.8 mph - N/A   Overcast